SWARM C

Last updated on Thu Sep 10 2026 00:03:32 GMT+0000 (Coordinated Universal Time)

1 39453U 13067C 26252.62849355 .00009047 00000+0 15704-3 0 9999 2 39453 87.3347 23.4459 0002322 97.7266 262.4259 15.50668856719299
UTC large
Height (km)
Speed (km/s)
/
Latitude / Longitude
Inclination (degrees)
Orbital Period (minutes)
Azimuth
Elevation
Range (km)
Doppler Factor

Next 0 passes for location: London (51.5072 / 0.1276)

No passes found over London.
SWARM C